SCP
0 0 0 0 0 0 0 0 0 0 0 0 0 0 0 0 -0 -0 0 0 0 0
0 0 0 0 0 0 0 0 0 0 0 0 0 0 0 0 0 0 0 0 0 0
0 0 0 0 0 0 0 0 0 0 0 0 0 0 0 0 0 0 0 0 0 0
0 0 0 0 0 0 0 0 0 0 0 0 0 0 0 0 0 0 0 0 0 0
0 0 0 0 0 0 0 0 0 0 0 0 0 0 0 0 0 0 0 0 0 0
0 0 0 0 0 0 0 0 0 0 0 0 0 0 0 0 0 0 0 0 0 0
0 0 0 0 0 0 0 0 0 0 0 0 0 0 0 0 0 0 0 0 0 0
0 0 0 0 0 0 0 0 0 0 0 0 0 0 0 0 0 0 0 0 0 0
0 0 0 0 0 0 0 0 0 0 0 0 0 0 0 0 0 0 0 0 0 0
0 0 0 0 0 0 0 0 0 0 0 0 0 0 0 0 0 0 0 0 0 0
0 0 0 0 0 0 0 0 0 0 0 0 0 0 0 0 0 0 0 0 0 0
0 0 0 0 0 0 0 0 0 0 0 0 0 0 0 0 0 0 0 0 0 0
0 0 0 0 0 0 0 0 0 0 0 0 0 0 0 0 0 0 0 0 0 0
0 0 0 0 0 0 0 0 0 0 0 0 0 0 0 0 0 0 0 0 0 0
Wind_Speed_500mb
21 22 23 24 27 31 35 38 41 43 47 52 56 60 65 70 73 76 76 76 74 73
17 20 25 28 32 38 40 42 44 46 49 52 57 61 65 67 69 73 79 86 92 95
21 27 30 34 38 43 46 49 54 59 65 70 75 79 85 88 89 91 89 87 85 85
27 32 36 40 44 49 53 58 63 69 75 80 85 88 92 94 96 97 97 95 96 95
32 35 39 43 47 51 56 61 68 74 80 82 82 84 86 88 88 88 88 88 88 91
33 37 41 44 49 54 63 70 74 76 78 81 83 84 84 84 84 84 86 88 89 89
40 41 44 48 54 64 72 74 76 78 81 84 85 82 82 80 82 84 85 85 82 79
42 43 48 55 66 72 74 77 81 83 84 84 81 79 79 79 79 80 81 79 75 76
41 45 54 65 70 72 76 80 82 83 83 83 81 80 77 73 72 71 74 78 74 70
42 52 62 68 71 75 80 82 82 81 82 82 81 78 75 68 67 67 67 64 66 71
50 59 65 69 73 77 80 80 80 81 81 82 79 74 71 66 64 66 66 63 63 67
54 61 67 73 76 77 78 78 78 80 81 80 78 69 66 63 65 64 65 64 62 62
55 62 69 74 75 74 72 75 75 77 75 74 74 65 62 56 56 63 69 70 75 73
55 63 67 71 70 69 71 73 72 73 73 72 67 64 62 50 55 65 75 73 71 75
Wind_Direction_500mb
36 24 13 1 350 340 334 332 329 324 322 320 319 317 316 316 317 316 313 310 307 304
17 8 358 350 343 337 333 329 328 323 321 318 316 315 312 311 309 306 305 304 305 305
1 356 350 342 339 336 333 331 328 326 324 321 319 318 316 314 312 310 306 303 299 296
354 350 343 337 335 332 330 327 325 322 320 317 315 313 310 309 308 307 306 306 306 304
345 337 331 329 327 324 321 319 317 314 312 311 310 310 310 308 307 305 304 302 300 298
328 326 323 320 319 320 318 316 315 314 315 315 315 314 313 311 309 308 305 303 300 299
321 319 317 319 319 318 318 318 319 318 317 316 316 315 313 311 308 305 303 301 300 299
313 315 319 319 320 320 320 320 319 318 315 314 314 315 313 311 308 305 303 301 298 297
310 315 318 318 319 319 317 317 316 316 316 317 317 317 316 312 308 302 299 299 299 298
311 318 320 320 320 320 319 318 318 318 318 318 318 318 317 312 303 300 298 297 297 299
318 320 321 322 322 321 320 320 320 319 318 318 320 321 317 311 303 298 299 300 301 305
319 322 324 324 323 322 321 320 320 320 320 320 322 322 317 312 307 305 308 310 316 318
323 325 325 323 323 322 322 320 319 319 320 321 322 324 318 315 311 312 314 320 320 317
323 324 323 321 322 322 321 319 320 321 323 325 328 330 330 317 313 313 314 309 305 305
Wind_Speed_850mb
21 22 23 24 27 31 35 38 41 43 47 52 56 60 65 70 73 76 76 76 74 73
17 20 25 28 32 38 40 42 44 46 49 52 57 61 65 67 69 73 79 86 92 95
21 27 30 34 38 43 46 49 54 59 65 70 75 79 85 88 89 91 89 87 85 85
27 32 36 40 44 49 53 58 63 69 75 80 85 88 92 94 96 97 97 95 96 95
32 35 39 43 47 51 56 61 68 74 80 82 82 84 86 88 88 88 88 88 88 91
33 37 41 44 49 54 63 70 74 76 78 81 83 84 84 84 84 84 86 88 89 89
40 41 44 48 54 64 72 74 76 78 81 84 85 82 82 80 82 84 85 85 82 79
42 43 48 55 66 72 74 77 81 83 84 84 81 79 79 79 79 80 81 79 75 76
41 45 54 65 70 72 76 80 82 83 83 83 81 80 77 73 72 71 74 78 74 70
42 52 62 68 71 75 80 82 82 81 82 82 81 78 75 68 67 67 67 64 66 71
50 59 65 69 73 77 80 80 80 81 81 82 79 74 71 66 64 66 66 63 63 67
54 61 67 73 76 77 78 78 78 80 81 80 78 69 66 63 65 64 65 64 62 62
55 62 69 74 75 74 72 75 75 77 75 74 74 65 62 56 56 63 69 70 75 73
55 63 67 71 70 69 71 73 72 73 73 72 67 64 62 50 55 65 75 73 71 75
Wind_Direction_850mb
36 24 13 1 350 340 334 332 329 324 322 320 319 317 316 316 317 316 313 310 307 304
17 8 358 350 343 337 333 329 328 323 321 318 316 315 312 311 309 306 305 304 305 305
1 356 350 342 339 336 333 331 328 326 324 321 319 318 316 314 312 310 306 303 299 296
354 350 343 337 335 332 330 327 325 322 320 317 315 313 310 309 308 307 306 306 306 304
345 337 331 329 327 324 321 319 317 314 312 311 310 310 310 308 307 305 304 302 300 298
328 326 323 320 319 320 318 316 315 314 315 315 315 314 313 311 309 308 305 303 300 299
321 319 317 319 319 318 318 318 319 318 317 316 316 315 313 311 308 305 303 301 300 299
313 315 319 319 320 320 320 320 319 318 315 314 314 315 313 311 308 305 303 301 298 297
310 315 318 318 319 319 317 317 316 316 316 317 317 317 316 312 308 302 299 299 299 298
311 318 320 320 320 320 319 318 318 318 318 318 318 318 317 312 303 300 298 297 297 299
318 320 321 322 322 321 320 320 320 319 318 318 320 321 317 311 303 298 299 300 301 305
319 322 324 324 323 322 321 320 320 320 320 320 322 322 317 312 307 305 308 310 316 318
323 325 325 323 323 322 322 320 319 319 320 321 322 324 318 315 311 312 314 320 320 317
323 324 323 321 322 322 321 319 320 321 323 325 328 330 330 317 313 313 314 309 305 305